Location: Kielce
(50.8833°N, 20.6167°E)
Time: 22:28:29
(UTC+02:00)

SR - Pass Details

Date: 21 April 2021
Orbit: 573 x 882 km, 66.7° (Epoch: 09 May)

Event Time Altitude Azimuth Distance (km) Brightness Sun altitude
Rises 14:39:07 0° 321° (NW) 3,492 ? 43.8°
Reaches altitude 10° 14:41:52 10° 330° (NNW) 2,543 ? 43.5°
Maximum altitude 14:47:18 36° 36° (NE) 1,340 ? 42.9°
Drops below altitude 10° 14:52:30 10° 102° (ESE) 2,429 ? 42.3°
Sets 14:55:04 0° 111° (ESE) 3,316 ? 42.0°
